Regional Weather Roundup
Issued by NWS

Home | Current Version | Previous Version | Text Only | Print | Product List | Glossary Off
Versions: 1 2 3 4 5 6 7 8 9 10 11 12 13 14 15 16 17 18 19 20 21 22 23 24 25 26 27 28 29 30 31 32 33 34 35 36 37 38 39 40 41 42 43 44 45 46 47 48 49 50

000
ASUS43 KIND 281009
RWRIN

WEATHER ROUNDUP FOR INDIANA
NATIONAL WEATHER SERVICE INDIANAPOLIS IN
500 AM EST FRI NOV 28 2014

NOTE: "FAIR" INDICATES FEW OR NO CLOUDS BELOW 12,000 FEET WITH NO
SIGNIFICANT WEATHER AND/OR OBSTRUCTIONS TO VISIBILITY.

* - STATION DOES NOT REPORT WEATHER SUCH AS PRECIPITATION OR FOG.

+ - STATION NOT QUALITY CONTROLLED BY THE NATIONAL WEATHER SERVICE.
    USE DATA WITH CAUTION...ESPECIALLY DEWPOINT AND RELATIVE
    HUMIDITY OBSERVATIONS.

INZ001>003-010>013-019-020-281100-
NORTHWEST INDIANA

CITY           SKY/WX    TMP DP  RH WIND       PRES   REMARKS
KNOX *+        CLOUDY    20  15  81 CALM      30.36F
LA PORTE +     CLOUDY    22  15  75 W6        30.37R WCI  14
MICHIGAN CITY+ CLOUDY    21  12  68 SW5       30.38R WCI  15
MONTICELLO +   MOCLDY    20  17  89 CALM      30.38S
RENSSELAER +   CLOUDY    21  19  93 SW3       30.38S
VALPARAISO     CLOUDY    19  14  81 CALM      30.37S

$$

LMZ046-743>745-281100-
SOUTHERN LAKE MICHIGAN

STATION/POSITION TIME  TEMP WIND        PRES
                       AIR  DIR/SP/G
                 (UTC) (F)  (DEG/KT/KT) (MB)
MICHIGAN CITY    1000   21  200/ 10/ 12   N/A

$$

INZ004-005-014>016-021>024-281100-
NORTH CENTRAL INDIANA

CITY           SKY/WX    TMP DP  RH WIND       PRES   REMARKS
GOSHEN         CLOUDY    15  12  88 S3        30.34F
LOGANSPORT +   PTCLDY    21  16  79 W3        30.38S
ROCHESTER +    MOCLDY    25  19  80 SW5       30.37S WCI  19
SOUTH BEND     CLOUDY    20  15  81 SW8       30.36S WCI  10
WARSAW +       MOCLDY    18  16  93 CALM      30.35F

$$

INZ006>009-017-018-025>027-281100-
NORTHEAST INDIANA

CITY           SKY/WX    TMP DP  RH WIND       PRES   REMARKS
ANGOLA *+      CLEAR     18  14  86 W3        30.32R
AUBURN +       PTCLDY    18  14  86 CALM      30.36R
FORT WAYNE     MOCLDY    20  15  81 SW7       30.37S WCI  11
HUNTINGTON +   CLOUDY    20  16  84 W3        30.37R

$$

INZ028-029-035-036-043>045-051>053-281100-
WEST CENTRAL INDIANA

CITY           SKY/WX    TMP DP  RH WIND       PRES   REMARKS
GREENCASTLE +  CLOUDY    19  16  86 CALM      30.39F
LAFAYETTE      CLOUDY    19  16  88 SW3       30.39F
TERRE HAUTE    CLOUDY    21  15  78 S5        30.40F WCI  15

$$

INZ030>032-037>040-046>048-054>057-064-065-281100-
CENTRAL INDIANA

CITY           SKY/WX    TMP DP  RH WIND       PRES   REMARKS
CP ATTERBURY + CLOUDY    25  21  86 CALM      30.41F
FRANKFORT +    PTCLDY    21  18  88 SW5       30.39S WCI  15
INDIANAPOLIS   CLOUDY    21  18  88 SW8       30.38S WCI  11
-EAGLE CREEK   MOCLDY    21  18  88 SW6       30.38F WCI  13
KOKOMO *+      PTCLDY    21  18  86 W6        30.37S WCI  14
MARION +         N/A     22  19  86 W6        30.38R FOG     WCI  15
MT COMFORT *+  CLOUDY    21  18  86 CALM      30.38F
SHELBYVILLE    CLOUDY    25  20  81 SW9       30.39R WCI  15
ZIONSVILLE +   MOCLDY    21  17  83 W3        30.38F

$$

INZ033-034-041-042-049-050-058-059-281100-
EAST CENTRAL INDIANA

CITY           SKY/WX    TMP DP  RH WIND       PRES   REMARKS
MUNCIE         MOCLDY    23  18  81 W7        30.37R WCI  15

$$

INZ060-061-067>069-081>083-085>088-281100-
SOUTHWEST INDIANA

CITY           SKY/WX    TMP DP  RH WIND       PRES   REMARKS
EVANSVILLE     MOCLDY    26  21  81 CALM      30.44F
HUNTINGBURG *+ CLOUDY    25  18  74 CALM      30.43S
WASHINGTON +   CLOUDY    23  18  80 CALM      30.42F

$$

INZ062-063-066-070>080-084-089>092-281100-
SOUTH CENTRAL AND SOUTHEAST INDIANA

CITY           SKY/WX    TMP DP  RH WIND       PRES   REMARKS
BLOOMINGTON    CLOUDY    20  17  88 CALM      30.39F

$$




USA.gov is the U.S. government's official web portal to all federal, state and local government web resources and services.